SCP
0 0 0 0 0 0 0 0 0 0 0 0 0 0 0 0 0 0 0 0 0 0 0 0 0 0 0 0 0 0 0 0 0 0 0 0 0 0 0 0 0 0 0 0
0 0 0 0 0 0 0 0 0 0 0 0 0 0 0 0 0 0 0 0 0 0 0 0 0 0 0 0 0 0 0 0 0 0 0 0 0 0 0 0 0 0 0 0
0 0 0 0 0 0 0 0 0 0 0 0 0 0 0 0 0 0 0 0 0 0 0 0 0 0 0 0 0 0 0 0 0 0 0 0 0 0 0 0 0 0 0 0
0 0 0 0 0 0 0 0 0 0 0 0 0 0 0 0 0 0 0 0 0 0 0 0 0 0 0 0 0 0 0 0 0 0 0 0 0 0 0 0 0 0 0 0
0 0 0 0 0 0 0 0 0 0 0 0 0 0 0 0 0 0 0 0 0 0 0 0 0 0 0 0 0 0 0 0 0 0 0 0 0 0 0 0 0 0 0 0
0 0 0 0 0 0 0 0 0 0 0 0 0 0 0 0 0 0 0 0 0 0 0 0 0 0 0 0 0 0 0 0 0 0 0 0 0 0 0 0 0 0 0 0
0 0 0 0 0 0 0 0 0 0 0 0 0 0 0 0 0 0 1 1 0 1 0 0 0 0 0 0 0 0 0 0 0 0 0 0 0 0 0 0 0 0 0 0
0 0 0 0 0 0 0 0 0 0 0 0 0 0 0 0 0 1 1 1 1 1 1 0 0 0 0 0 0 0 0 0 0 0 0 0 0 0 0 0 0 0 0 0
0 0 0 0 0 0 0 0 0 0 0 0 0 0 0 0 0 1 1 1 1 1 0 0 0 0 0 0 0 0 0 0 0 0 0 0 0 0 0 0 0 0 0 0
0 0 0 0 0 0 0 0 0 0 0 0 0 0 0 0 0 1 1 2 1 1 0 0 0 0 0 0 0 0 0 0 0 0 0 0 0 0 0 0 0 0 0 0
0 0 0 0 0 0 0 0 0 0 0 0 0 0 0 0 0 1 1 1 1 1 0 0 0 0 0 0 0 0 0 0 0 0 0 0 0 0 0 0 0 0 0 0
0 0 0 0 0 0 0 0 0 0 0 0 0 0 0 0 1 1 1 1 1 1 1 0 0 0 0 0 0 0 0 0 0 0 0 0 0 0 0 0 0 0 0 0
0 0 0 0 0 0 0 0 0 0 0 0 0 0 0 0 1 1 1 1 1 1 1 1 0 0 0 0 0 0 0 0 0 0 0 0 0 0 0 0 0 0 0 0
0 0 0 0 0 0 0 0 0 0 0 0 0 0 0 0 1 1 1 0 0 0 1 1 1 0 0 0 0 0 0 0 0 0 0 0 0 0 0 0 0 0 0 0
0 0 0 0 0 0 0 0 0 0 0 0 0 0 0 0 1 1 0 0 0 0 1 1 1 1 0 0 0 0 0 0 0 0 0 0 0 0 0 0 0 0 0 0
0 0 0 0 0 0 0 0 0 0 0 0 0 0 0 0 0 0 0 0 0 0 0 1 1 1 1 0 0 0 0 0 0 0 0 0 0 0 0 0 0 0 0 0
0 0 0 0 0 0 0 0 0 0 0 0 0 0 0 0 0 0 0 0 0 0 0 0 0 0 0 0 0 0 0 0 0 0 0 0 0 0 0 0 0 0 0 0
0 0 0 0 0 0 0 0 0 0 0 0 0 0 0 0 0 0 0 0 0 0 0 0 0 0 0 0 0 0 0 0 0 0 0 0 0 0 0 0 0 0 0 0
0 0 0 0 0 0 0 0 0 0 0 0 0 0 0 0 0 0 0 0 0 0 0 0 0 0 0 0 0 0 0 0 0 0 0 0 0 0 0 0 0 0 0 0
0 0 0 0 0 0 0 0 0 0 0 0 0 0 0 0 0 0 0 0 0 0 0 0 0 0 0 0 0 0 0 0 0 0 0 0 0 0 0 0 0 0 0 0
0 0 0 0 0 0 0 0 0 0 0 0 0 0 0 0 0 0 0 0 0 0 0 0 0 0 0 0 0 0 0 0 0 0 0 0 0 0 0 0 0 0 0 0
0 0 0 0 0 0 0 0 0 0 0 0 0 0 0 0 0 0 0 0 0 0 0 0 0 0 0 0 0 0 0 0 0 0 0 0 0 0 0 0 0 0 0 0
0 0 0 0 0 0 0 0 0 0 0 0 0 0 0 0 0 0 0 0 0 0 0 0 0 0 0 0 0 0 0 0 0 0 0 0 0 0 0 0 0 0 0 0
0 0 0 0 0 0 0 0 0 0 0 0 0 0 0 0 0 0 0 0 0 0 0 0 0 0 0 0 0 0 0 0 0 0 0 0 0 0 0 0 0 0 0 0
0 0 0 0 0 0 0 0 0 0 0 0 0 0 0 0 0 0 0 0 0 0 0 0 0 0 0 0 0 0 0 0 0 0 0 0 0 0 0 0 0 0 0 0
0 0 0 0 0 0 0 0 0 0 0 0 0 0 0 0 0 0 0 0 0 0 0 0 0 0 0 0 0 0 0 0 0 0 0 0 0 0 0 0 0 0 0 0
Wind_Speed
7 7 8 8 7 4 6 7 7 5 4 4 6 7 8 8 9 10 10 10 11 10 9 8 7 7 7 7 7 7 7 6 5 4 3 3 4 3 4 4 6 5 6 6
8 8 6 5 5 6 7 7 7 6 5 4 6 6 6 8 9 9 10 11 11 10 10 8 8 8 8 8 8 8 7 6 5 3 3 3 3 3 3 3 4 5 6 6
8 5 7 8 8 8 7 8 7 7 6 5 5 6 8 8 8 8 9 9 10 11 12 11 10 9 8 8 8 6 6 6 5 5 3 3 3 3 3 3 3 5 5 6
5 5 8 9 8 7 6 4 5 7 7 6 6 5 10 11 10 11 11 11 11 11 11 11 10 10 9 8 7 7 7 6 5 5 4 3 2 2 3 2 3 3 4 5
6 8 10 10 8 7 4 4 4 5 6 5 7 6 8 11 13 14 13 12 11 11 11 11 10 10 8 8 7 7 7 6 6 4 4 3 3 2 2 2 3 3 4 4
4 4 6 6 6 6 7 6 3 2 4 8 10 8 7 11 14 14 14 13 12 12 11 10 9 9 8 8 7 7 7 6 6 5 4 3 3 3 2 2 2 2 3 3
6 7 5 6 9 9 9 7 5 6 6 6 6 7 6 7 10 12 14 14 13 12 12 12 11 10 9 9 8 8 8 7 6 6 5 4 3 2 2 1 2 2 2 3
8 9 10 9 9 10 12 10 6 5 6 5 6 8 4 4 5 7 10 12 13 13 12 12 12 11 10 10 9 8 8 7 7 6 5 4 3 2 2 2 2 2 2 3
7 7 8 8 6 8 11 9 4 3 2 5 7 5 4 5 7 9 11 13 14 14 13 13 12 11 10 10 9 9 9 8 7 6 5 4 3 2 3 2 2 2 2 3
4 6 9 8 7 5 6 7 6 6 5 6 6 7 6 11 12 12 13 14 14 14 14 13 12 11 10 9 9 8 8 8 7 6 5 4 4 3 2 2 2 2 3 3
6 5 8 9 10 12 9 9 7 6 4 4 4 4 3 8 12 15 15 15 15 15 14 13 12 11 10 10 9 9 9 8 7 6 6 5 5 4 4 3 3 2 2 3
7 4 6 8 4 6 9 10 10 7 6 5 4 2 4 5 8 12 14 14 15 15 13 13 12 12 11 11 10 9 9 8 7 7 6 6 5 5 4 4 3 2 2 2
9 6 7 7 7 8 9 10 11 8 5 6 6 3 5 4 6 9 12 14 14 14 14 13 12 12 11 11 10 10 9 9 8 7 7 6 5 5 4 4 3 2 2 2
7 7 7 6 4 9 12 12 12 12 9 8 9 6 5 5 7 9 12 14 15 15 14 14 13 12 12 12 11 11 9 9 9 8 7 6 6 5 4 4 3 2 2 2
7 8 9 7 4 8 11 13 15 16 15 11 9 9 8 6 7 10 12 14 15 16 15 15 14 13 13 12 11 11 10 9 9 8 7 6 5 5 4 4 3 3 3 3
8 7 7 7 8 9 11 13 16 18 16 15 13 12 9 6 6 9 13 16 17 17 17 16 16 16 15 14 13 12 11 10 10 9 8 7 6 6 5 5 4 4 3 3
9 8 7 6 6 7 11 15 17 16 16 15 15 13 9 8 10 12 14 17 18 18 18 18 17 16 16 15 15 14 12 11 10 9 8 8 7 6 5 5 5 4 3 3
9 9 5 4 6 9 5 5 12 15 16 15 14 12 10 10 8 9 12 16 17 17 17 17 16 16 15 15 14 13 12 12 11 10 9 8 7 7 6 5 5 4 3 3
7 7 5 5 7 7 5 5 9 12 13 15 16 14 10 6 5 9 13 16 16 17 17 16 16 16 15 15 15 14 13 12 11 10 10 9 8 7 6 6 5 4 3 3
6 6 6 6 7 6 3 2 5 7 10 9 13 13 10 9 9 8 11 15 15 14 14 14 15 16 16 15 15 15 14 13 12 11 10 9 8 8 7 6 5 4 4 3
9 8 9 9 8 7 2 4 7 8 3 1 7 9 11 12 9 4 9 11 13 14 14 15 16 15 15 15 15 15 14 13 11 10 10 9 8 7 7 6 5 4 4 4
10 9 9 8 8 6 4 8 8 3 3 1 3 6 9 9 5 6 8 10 12 13 15 16 15 14 14 15 16 15 14 12 11 11 10 9 8 7 6 6 5 5 4 4
8 7 5 7 5 2 4 6 4 5 6 4 3 4 6 7 6 7 8 10 12 14 14 14 14 14 13 14 15 15 13 12 12 12 11 9 9 7 6 7 6 5 5 4
6 3 5 6 7 6 5 6 7 7 7 5 4 4 6 6 6 8 8 9 11 13 14 14 15 15 14 14 13 12 13 13 13 12 11 10 9 8 7 5 5 5 5 4
4 7 6 7 6 5 5 5 5 5 5 3 3 4 5 6 6 7 8 9 10 11 12 13 14 14 14 14 13 12 13 13 13 12 10 10 8 8 7 6 5 5 5 4
6 7 6 5 4 5 4 2 2 3 3 3 3 4 5 6 7 7 7 8 9 11 12 12 13 13 14 14 13 13 13 13 13 11 10 8 7 6 6 6 6 5 5 4
Wind_Direction
175 196 195 187 196 191 178 179 170 142 141 177 175 167 168 174 187 185 183 185 182 179 170 162 160 158 156 155 150 140 146 143 142 138 130 115 102 90 76 60 51 44 40 37
179 202 186 174 177 183 183 179 164 143 155 178 180 188 183 189 196 197 193 187 184 178 173 170 173 168 166 163 164 156 151 148 145 123 110 106 100 87 73 71 71 48 42 36
200 159 166 179 180 185 188 194 177 158 151 168 181 201 201 193 199 201 206 199 189 184 181 175 177 171 169 172 172 162 154 155 152 143 130 131 126 133 119 92 69 47 41 40
197 165 178 185 190 193 183 185 184 172 181 178 198 205 201 194 197 201 199 198 196 185 185 177 174 174 178 175 170 166 159 159 152 158 159 144 124 101 82 70 75 72 55 47
178 181 186 191 191 197 161 157 187 196 200 188 201 225 195 189 202 202 196 193 192 184 184 180 176 176 174 168 168 165 156 157 158 164 154 168 133 106 101 99 88 69 68 49
163 178 201 190 178 179 144 146 146 193 213 217 203 219 205 193 204 197 191 189 185 181 179 175 169 167 165 163 163 164 159 156 159 170 170 168 137 135 119 106 84 79 79 62
178 178 175 174 163 171 181 178 182 192 205 215 187 222 226 189 200 198 189 184 178 176 173 170 167 168 166 166 166 165 164 161 165 172 174 162 158 146 122 94 90 64 71 68
191 185 185 191 194 186 193 204 210 205 198 179 191 227 204 154 191 200 188 177 172 173 173 171 169 169 167 166 166 167 166 163 163 167 166 158 151 158 103 85 73 73 64 63
200 181 172 189 197 193 189 208 237 268 231 209 197 210 210 181 188 187 180 174 176 174 172 171 168 169 166 166 167 169 167 164 163 161 159 160 158 145 124 120 96 85 84 77
224 184 166 163 170 194 219 191 196 219 211 213 201 214 204 182 189 185 182 180 178 175 174 171 168 168 166 164 166 168 168 164 161 160 160 156 151 139 127 120 100 91 91 86
217 203 166 176 197 188 183 194 210 218 241 250 203 186 183 189 187 188 186 183 179 177 176 171 168 165 162 162 164 166 166 162 159 161 158 156 148 147 142 122 106 108 110 111
202 223 185 181 176 212 206 207 210 215 211 243 258 150 121 187 189 190 184 180 179 177 172 169 165 162 163 165 165 165 163 160 159 160 159 155 146 154 149 132 124 125 110 101
178 207 181 170 179 193 209 214 220 234 242 231 235 164 126 170 186 188 183 177 173 171 169 167 166 167 167 167 164 162 164 158 156 160 160 155 153 155 148 140 128 126 118 122
197 222 225 213 189 185 198 201 211 220 230 230 233 243 212 211 197 185 183 178 173 173 172 171 170 171 169 168 167 163 163 159 159 161 163 158 156 153 151 135 135 126 122 126
212 235 233 245 232 205 210 205 207 220 233 243 243 251 251 232 209 193 184 178 176 176 176 176 176 172 170 169 169 165 161 162 163 164 163 157 152 146 143 135 134 128 126 123
213 235 227 228 217 215 222 218 215 222 232 243 255 262 259 244 211 194 186 182 183 182 181 179 179 176 175 172 171 166 164 165 166 166 163 155 158 149 149 141 139 133 126 117
198 217 223 223 206 215 230 221 216 217 223 232 241 246 236 219 209 203 192 188 190 187 183 181 182 181 178 175 174 170 166 164 168 167 163 160 160 153 150 143 142 142 140 127
206 212 228 229 204 233 236 199 213 223 231 228 239 249 242 237 222 209 199 194 193 188 184 183 181 179 176 172 171 166 163 166 169 168 164 162 161 157 155 154 155 159 153 142
226 213 225 238 241 254 248 205 203 216 237 230 233 241 240 227 205 217 207 201 198 190 184 181 179 175 172 171 169 165 167 170 171 169 166 166 165 163 163 165 165 159 157 154
209 227 235 235 246 246 248 164 192 217 244 234 226 227 215 189 210 215 192 191 193 186 179 174 172 171 171 170 168 170 171 172 174 170 167 165 166 166 167 168 166 160 164 164
183 203 224 234 248 258 264 137 174 214 248 180 210 211 200 203 220 159 156 175 179 176 172 168 169 171 171 168 171 175 175 176 169 163 161 163 168 169 166 164 165 168 170 177
196 199 210 220 239 249 154 167 206 285 350 301 223 212 209 212 211 158 158 163 167 168 168 169 169 170 168 171 175 177 178 168 159 160 163 165 168 168 166 167 172 175 176 185
217 223 220 223 239 314 184 223 276 318 299 293 256 223 205 201 194 176 167 164 165 166 167 170 168 166 168 175 180 178 169 161 161 163 166 169 169 171 172 175 177 182 188 202
196 208 221 233 247 257 257 259 265 265 272 284 260 220 198 192 182 173 167 164 164 167 167 168 168 170 171 174 180 176 163 164 166 169 170 172 174 174 179 185 191 194 198 208
187 186 215 237 253 264 255 249 268 268 261 248 220 201 195 184 175 171 166 165 166 165 166 169 173 174 171 170 173 171 164 168 171 172 174 176 178 180 188 191 201 210 209 220
190 200 215 241 252 262 285 315 277 263 251 222 193 180 183 183 173 165 163 162 164 165 166 171 174 173 170 169 171 170 169 173 175 175 177 179 179 184 191 197 198 211 235 220